Orbital Elements at Epoch 2459200.5 (2020-Dec-17.0) TDB
Reference: JPL 18 (heliocentric ecliptic J2000)
Element | Value | Uncertainty (1-sigma) | Units |
e | .008594517309620808 | 5.148e-08 | |
a | 3.062239810366374 | 2.9901e-08 | au |
q | 3.035921337309971 | 1.5177e-07 | au |
i | 1.846571850253375 | 4.9742e-06 | deg |
node | 62.26400892765916 | 0.00019952 | deg |
peri | 162.7536348274 | 0.00046793 | deg |
M | 156.6820800715918 | 0.00042722 | deg |
tp | 2458348.628572463383 (2018-Aug-18.12857246) | 0.002318 | TDB |
period | 1957.299225112762 5.36 | 2.8668e-05 7.849e-08 | d yr |
n | .1839269108070383 | 2.6939e-09 | deg/d |
Q | 3.088558283422778 | 3.0158e-08 | au |
|
| | Orbit Determination Parameters
Additional Information
|